Regional Weather Roundup
Issued by NWS Jackson, KY

Home | Current Version | Previous Version | Graphics & Text | Print | Product List | Glossary On
Versions: 1 2 3 4 5 6 7 8 9 10 11 12 13 14 15 16 17 18 19 20 21 22 23 24 25 26 27
000
ASUS43 KJKL 231810
RWRJKL

EAST KENTUCKY HOURLY WEATHER ROUNDUP
NATIONAL WEATHER SERVICE JACKSON KY
200 PM EDT SAT JUL 23 2016

NOTE: "FAIR" INDICATES FEW OR NO CLOUDS BELOW 12,000 FEET WITH
NO SIGNIFICANT WEATHER AND/OR OBSTRUCTIONS TO VISIBILITY.

* THESE REPORTS ARE NOT UNDER NWS QUALITY CONTROL AND MAY NOT
  REPORT WEATHER SUCH AS PRECIPITATION AND FOG.

KYZ079-080-083-085-087-088-110-112-115-119-120-231900
...EASTERN KENTUCKY...

CITY           SKY/WX    TMP DP  RH WIND       PRES   REMARKS
JACKSON        SUNNY     88  69  53 CALM      30.05F HX  92
6HR MIN TEMP:  73; 6HR MAX TEMP:  88;

LONDON         CLOUDY    88  69  53 S8        30.04F HX  92
6HR MIN TEMP:  75; 6HR MAX TEMP:  89;

SOMERSET*      MOSUNNY   88  70  55 CALM      30.04S HX  92
MONTICELLO*    MOSUNNY  N/A N/A N/A N10       30.04F
WILLIAMSBURG*  CLOUDY    90  73  58 NW3       30.03F HX  98
MIDDLESBORO*   MOSUNNY   89  70  52 CALM      30.02F HX  94
6HR MIN TEMP:  73; 6HR MAX TEMP:  91;

HARLAN APT*      N/A     90  68  48 SW3       30.05F HX  93
PIKE CO APT*   PTSUNNY   85  74  69 NE3       30.06S HX  92
BIG SANDY APT* CLEAR     89  73  57 W3        30.04F HX  96
6HR MIN TEMP:  71; 6HR MAX TEMP:  89;

MOREHEAD APT*  PTCLDY    88  72  58 CALM      30.05F HX  94
ASHLAND*       MOSUNNY   90  75  62 CALM      29.99F HX 100
$$

KYZ035-036-041-042-044-050-067-078-099-231900
...CENTRAL KENTUCKY...

CITY           SKY/WX    TMP DP  RH WIND       PRES   REMARKS
MT STERLING*   SUNNY     88  73  62 S3        30.04F HX  96
FLEMING/MASON* MOSUNNY   87  73  62 CALM      30.04F HX  93
DANVILLE*      MOSUNNY   88  70  55 SE3       30.04S HX  92
RICHMOND*      SUNNY     88  72  58 W5        30.03S HX  94
LEXINGTON      PTSUNNY   90  70  51 S6        30.02F HX  95
6HR MIN TEMP:  73; 6HR MAX TEMP:  91;

FRANKFORT      PTSUNNY   88  72  58 VRB5      30.01S HX  94
6HR MIN TEMP:  74; 6HR MAX TEMP:  90;

LOUISVILLE     MOSUNNY   91  71  51 VRB6      30.00S HX  97
6HR MIN TEMP:  76; 6HR MAX TEMP:  91;

LEBANON*         N/A     88  73  62 CALM      30.03S HX  96
GLASGOW*       MOSUNNY   91  71  52 S6        30.01S HX  98
BOWLING GREEN  SUNNY     90  75  61 SE5       30.00F HX 100
6HR MIN TEMP:  75; 6HR MAX TEMP:  91;

$$

KYZ091>093-OHZ055-061-077-WVZ005-015-034-035-042-231900
...SOUTHERN OHIO/WEST VIRGINIA...

CITY           SKY/WX    TMP DP  RH WIND       PRES   REMARKS
COVINGTON      MOSUNNY   90  71  53 W6        30.02S HX  96
COLUMBUS       PTSUNNY   88  71  57 W8        30.00F HX  94
DAYTON         PTSUNNY   87  71  58 W8        30.04S HX  93
WILMINGTON     MOSUNNY   88  72  58 SW8       30.03R HX  94
HUNTINGTON       N/A     89  71  55 VRB3      30.02F HX  95
CHARLESTON       N/A     92  68  45 VRB3      30.02F HX  96
PINEVILLE*       N/A     91  62  38 MISG      30.11F HX  91
BECKLEY          N/A     85  65  51 W6        30.11F
BLUEFIELD        N/A     85  62  46 CALM      30.14F
LOGAN CO APT*    N/A     86  72  62 VRB3      30.05F HX  92
$$

VAZ002-007-008-TNZ017-027-036-066-071-231900
...SOUTHWEST VIRGINIA/EAST TENNESSEE...

CITY           SKY/WX    TMP DP  RH WIND       PRES   REMARKS
WISE*            N/A     88  59  37 E5        30.13F
JONESVILLE*      N/A     91  68  46 SW6       30.06F HX  95
ABINGDON*        N/A     89  66  46 NW5       30.09F HX  91
BRISTOL        PTSUNNY   93  64  38 VRB6      30.04F HX  94
MORRISTOWN*    PTCLDY    91  70  49 SE6       30.02F HX  97
SEVIERVILLE*     N/A     97  68  38 N7        29.99F HX 101
KNOXVILLE      PTSUNNY   94  70  45 VRB3      29.99F HX 100
OAK RIDGE      MOSUNNY   95  70  44 VRB6      30.01F HX 101
CROSSVILLE     MOSUNNY   88  65  46 VRB5      30.07F HX  90
NASHVILLE      PTSUNNY   91  72  53 E7        29.99F HX  98
$$

...KEY TO REMARKS...
VSB - VISIBILITY IN MILES
WCI - WIND CHILL INDEX
HX  - HEAT INDEX

$$




USA.gov is the U.S. government's official web portal to all federal, state and local government web resources and services.